Regional Weather Roundup
Issued by NWS

Home | Current Version | Previous Version | Graphics & Text | Print | Product List | Glossary On
Versions: 1 2 3 4 5 6 7 8 9 10 11 12 13 14 15 16 17 18 19 20 21 22 23 24 25 26 27
000
ASUS43 KDMX 201307
RWRIA

WEATHER ROUNDUP FOR IOWA
NATIONAL WEATHER SERVICE DES MOINES IA
800 AM CDT SUN APR 20 2014

NOTE: "FAIR" INDICATES FEW OR NO CLOUDS BELOW 12,000 FEET WITH NO
SIGNIFICANT WEATHER AND/OR OBSTRUCTIONS TO VISIBILITY.

* - THESE STATIONS ARE NOT NWS STATIONS...THUS NOT UNDER NWS
QUALITY CONTROL.  THEY ALSO DO NOT REPORT WEATHER SUCH
AS PRECIPITATION OR FOG.

IAZ001>003-012>014-020>022-031>034-043>046-201400-
   NORTHWEST IOWA

CITY           SKY/WX    TMP DP  RH WIND       PRES   REMARKS
CARROLL *      MOSUNNY   63  46  55 SW13      30.01R
CHEROKEE *     RAIN      55  50  82 NE7       29.96F
DENISON *      SUNNY     61  46  59 S10G17    29.98F
LE MARS *      SUNNY     48  45  87 NE7       29.97F
ORANGE CITY *  SUNNY     52  41  66 E5        29.98F
SHELDON *      SUNNY     54  43  66 NE8       29.99S
SIOUX CITY     PTSUNNY   56  51  84 S5        29.98R
SPENCER        CLOUDY    52  46  80 CALM      30.01R
STORM LAKE *   CLOUDY    55  52  88 SE5       30.00F
$$

IAZ055>058-069>071-079>083-090>094-201400-
   SOUTHWEST IOWA

CITY           SKY/WX    TMP DP  RH WIND       PRES   REMARKS
ATLANTIC *     SUNNY     61  48  63 S9        30.02R
AUDUBON *      SUNNY     63  45  51 S12       30.02S
CLARINDA *     SUNNY     63  48  59 S10       30.04S
COUNCIL BLFS * SUNNY     61  50  67 S5        29.99S
CRESTON *      SUNNY     63  48  59 S18       30.04S
HARLAN  *      SUNNY     61  48  63 S12G17    30.04R
LAMONI         MOSUNNY   58  45  62 S10       30.07S
RED OAK *      MOSUNNY   63  50  63 S9        30.02R
SHENANDOAH *   SUNNY     64  50  59 S18       30.01S
$$

IAZ047>049-059>061-072>074-084-201400-
   CENTRAL IOWA

CITY           SKY/WX    TMP DP  RH WIND       PRES   REMARKS
AMES           CLOUDY    55  46  71 SE9       30.04S
ANKENY *       MOSUNNY   59  46  63 S7        30.05S
CHARITON *     SUNNY     59  45  58 S10       30.07F
DES MOINES     MOSUNNY   61  46  57 S10       30.05S
GRINNELL*      MOSUNNY   57  43  58 S13       30.08S
KNOXVILLE *    MOSUNNY   61  45  55 S9        30.07S
MARSHALLTOWN   CLOUDY    54  47  77 E7        30.07R
NEWTON *       MOSUNNY   57  43  58 S12       30.08S
PELLA *        SUNNY     59  43  55 S8        30.09S
PERRY *        CLOUDY    61  45  55 S9        30.03R
$$

IAZ004>006-015-016-023>025-035-036-201400-
   NORTH CENTRAL IOWA

CITY           SKY/WX    TMP DP  RH WIND       PRES   REMARKS
ALGONA *       CLOUDY    57  50  77 S8        30.04R
CLARION *      CLOUDY    61  48  63 S13       30.03R
ESTHERVILLE    CLOUDY    51  48  89 NW5       30.01R FOG
FORT DODGE *   CLOUDY    61  46  59 S9        30.04R
MASON CITY     LGT RAIN  54  49  83 CALM      30.05S
FOREST CITY *  LGT RAIN  52  52 100 CALM      30.03S
IOWA FALLS *   CLOUDY    54  50  87 SE10      30.05S
$$

IAZ007>011-017>019-026>030-037>042-050>054-066-201400-
   NORTHEAST IOWA

CITY           SKY/WX    TMP DP  RH WIND       PRES   REMARKS
CEDAR RAPIDS   PTSUNNY   56  42  59 S10       30.10R
CHARLES CITY * CLOUDY    54  48  82 S8        30.07R
CLINTON *      PTSUNNY   52  37  58 SE10      30.17F
DECORAH *      CLOUDY    54  46  76 S10G17    30.07F HAZE
DUBUQUE        CLOUDY    53  39  59 S14       30.12S
MONTICELLO *   SUNNY     57  43  58 S12       30.12R
OELWEIN *      CLOUDY   N/A N/A N/A S10       30.10F
WATERLOO       LGT RAIN  54  46  74 S12       30.07F
$$

IAZ064-065-067-068-078-201400-
   EAST CENTRAL IOWA

CITY           SKY/WX    TMP DP  RH WIND       PRES   REMARKS
DAVENPORT      MOSUNNY   59  38  45 S14       30.14F
IOWA CITY      PTSUNNY   53  44  71 SE6       30.13S
MT. PLEASANT * MOSUNNY   63  41  45 S10G16    30.14R
MUSCATINE *    SUNNY     55  45  67 CALM      30.14S
QUAD CITIES    SUNNY     58  38  47 S7        30.13F
$$

IAZ062-063-075>077-085>089-095>099-201400-
   SOUTHEAST IOWA

CITY           SKY/WX    TMP DP  RH WIND       PRES   REMARKS
BURLINGTON     MOSUNNY   60  42  51 S10       30.14R
FAIRFIELD *    SUNNY     59  43  55 S10       30.12S
FORT MADISON * SUNNY     61  43  51 S10       30.14S
KEOKUK *       SUNNY     64  41  42 S15       30.13S
OSKALOOSA *      N/A     57  45  62 S9        30.10S
CENTERVILLE *  SUNNY     57  45  62 S8        30.11S
OTTUMWA        MOSUNNY   57  42  57 S14       30.10R
WASHINGTON *   SUNNY     59  43  55 S10       30.12S
$$

ABBREVIATIONS USED IN REMARKS
   TC - TEMPERATURES IN CELSIUS
  WCI - WIND CHILL INDEX
   HX - HEAT INDEX
  VSB - VISIBILITY
$$




USA.gov is the U.S. government's official web portal to all federal, state and local government web resources and services.